map of YMS home
Great Circle Mapper logo
YMS - Airport
Location
City:  Yurimaguas, Perú
Name:Moisés Benzaquén Rengifo Airport
ICAO / IATA:SPMS / YMS

Details
Type:Airport (Aerodrome, Airfield)
Latitude:5°53'38"S (-5.893771)
Longitude:76°07'06"W (-76.118210)
Datum:WGS 1984
Elevation:587 ft (179 m)
Runways:1
Longest:5912 × 98 ft (1802 × 30 m), paved

Time
Time Zone:UTC-5
Local Time:

Weather
METAR:SPMS 311500Z 33007KT 8000 BKN015 26/23 Q1013 RMK BIRD HAZARD 09/27 PP000
TAF:SPMS 301700Z 3018/3118 02006KT 9999 SCT020 TX33/3019Z TN23/3110Z
TEMPO 3020/3101 VRB12KT 5000 SHRA BKN015 FEW025TCU
TEMPO 3109/3013 8000 BKN005 SCT100

Related Locations
Nearby:
Farthest:RDN: 12388 mi / 19937 km
Redang, Pulau Redang, MY

Find:

   beyond  
but within

Other Information
Maps:
NOTAMs:
Links:
Sources:

  
flag of Perú   

Sectional Chart

Flight Planning
at skyvector.com

Satellite Image

Google Maps Satellite View

 

Copyright © 2004-2014 Karl L. Swartz. All rights reserved.
The Great Circle Mapper name and logo are trademarks of the Great Circle Mapper.
All other trademarks mentioned herein belong to their respective owners.
Please see credits for attibutions and further copyright information.

  Follow gcmap on Facebook Follow gcmap on Twitter

hCard Microformat

Geo Microformat